Location: ????
(55.2778°N, 39.2433°E)
Time: 22:54:44
(UTC+00:00)

EO 1 Delta rocket - Pass Details

Date: 14 April 2024
Orbit: 697 x 1790 km, 95.4° (Epoch: 23 May)

Event Time Altitude Azimuth Distance (km) Brightness Sun altitude
Rises 00:19:20 0° 12° (NNE) 3,286 8.3 -15.6°
Reaches altitude 10° 00:21:48 10° 16° (NNE) 2,272 7.4 -15.3°
Maximum altitude 00:26:34 58° 96° (E) 823 4.4 -14.8°
Drops below altitude 10° 00:31:06 10° 176° (S) 2,170 6.0 -14.3°
Enters shadow 00:31:31 - 177° (S) 2,339 6.1 -14.3°
